Regional Weather Roundup
Issued by NWS

Home | Current Version | Previous Version | Text Only | Print | Product List | Glossary On
Versions: 1 2 3 4 5 6 7 8 9 10 11 12 13 14 15 16 17 18 19 20 21 22 23 24 25 26 27 28 29 30 31 32 33 34 35 36 37 38 39 40 41 42 43 44 45 46 47 48 49 50
000
ASUS43 KMPX 100310
RWRMN
WEATHER ROUNDUP FOR MINNESOTA
NATIONAL WEATHER SERVICE TWIN CITIES/CHANHASSEN MN
900 PM CST SAT DEC 09 2017


NOTE: "FAIR" INDICATES FEW OR NO CLOUDS BELOW 12,000 FEET WITH NO
SIGNIFICANT WEATHER AND/OR OBSTRUCTIONS TO VISIBILITY. N/A MEANS
CURRENT SKY AND/OR WEATHER CONDITIONS ARE NOT AVAILABLE.

MNZ060>063-068>070-100400-
   Twin Cities Metro

CITY           SKY/WX    TMP DP  RH WIND       PRES   REMARKS
TWIN CITIES    CLOUDY    22  15  75 SW9       29.96F WCI  12
ST PAUL        CLOUDY    23  14  68 SW8       29.98F WCI  14
CRYSTAL        CLOUDY    23  13  65 S9        29.93F WCI  13
LAKEVILLE      CLOUDY    21  16  79 W6        29.96F WCI  14
EDEN PRAIRIE   CLOUDY    22  15  75 SW10      29.94F WCI  11
SOUTH ST PAUL  CLOUDY    23  15  70 SW7       29.97S WCI  15
LAKE ELMO      CLOUDY    23  18  80 SW10      29.97S WCI  12
$$
MNZ001>005-007-008-013>017-022>024-027-028-100400-
   Northwest Minnesota

CITY           SKY/WX    TMP DP  RH WIND       PRES   REMARKS
BEMIDJI        CLOUDY    15  12  88 CALM      29.75S
HALLOCK        CLOUDY    27  21  80 NW14      29.76R WCI  15
ROSEAU         CLOUDY    16  10  79 E3        29.74F
WARROAD        CLOUDY    19  16  86 CALM      29.75F
THIEF RVR FALL CLOUDY    21  19  92 W7        29.75S WCI  12
CROOKSTON      CLEAR     23  19  86 W8        29.77S WCI  14
FOSSTON        CLEAR     19  18  93 S9        29.76F WCI   9
DETROIT LAKES  CLEAR     25  21  86 SW9       29.77F WCI  15
MOORHEAD       CLOUDY    25  19  80 CALM      29.81R
PARK RAPIDS    PTCLDY    19  14  81 CALM      29.78R
MAHNOMEN       FAIR      23  19  87 SW10      29.76R WCI  12
$$
MNZ006-009>011-018-025>026-100400-
   North Central Minnesota

CITY           SKY/WX    TMP DP  RH WIND       PRES   REMARKS
BAUDETTE       CLOUDY    18  13  80 SE6       29.75F WCI  10
FLAG ISLAND    CLOUDY    18  14  86 SE7       29.75F WCI   8
INTL FALLS     CLOUDY    15  10  80 SE3       29.79F
WASKISH        CLOUDY    19  16  86 S7        29.75F WCI  10
BIG FORK       CLOUDY    19  12  73 S6        29.77F WCI  11
GRAND RAPIDS   CLOUDY    19  12  74 S5        29.81F WCI  12
ORR            CLOUDY    16   9  73 SE3       29.76F
COOK           CLOUDY    16  10  79 CALM      29.80F
WALKER         MOCLDY    19  14  79 S7        29.77F WCI  10
$$
MNZ012-019>021-037-100400-
   Northeast Minnesota

CITY           SKY/WX    TMP DP  RH WIND       PRES   REMARKS
DULUTH         CLOUDY    16  12  84 SW12      29.82F WCI   3
ELY            CLOUDY    14  10  85 SW7       29.79F WCI   4
HIBBING        CLOUDY    16   9  74 CALM      29.80S
EVELETH        CLOUDY    15   9  78 S3        29.81F
DULUTH HARBOR  CLOUDY    19  16  86 SW7       29.89F WCI  10
TWO HARBORS    CLOUDY    19  14  79 SW3       29.82F
G MARAIS ARPRT LGT SNOW   7   1  78 CALM      29.76F
$$
MNZ029>031-032-039>041-046>048-054>057-064-100400-
   West Central Minnesota

CITY           SKY/WX    TMP DP  RH WIND       PRES   REMARKS
FERGUS FALLS   CLEAR     21  19  93 S8        29.84F WCI  12
MORRIS         PTCLDY    21  19  93 S8        29.85F WCI  12
ALEXANDRIA     PTCLDY    22  18  85 SW14      29.81F WCI   9
ELBOW LAKE     FAIR      21  19  91 S10       29.83F WCI  10
WADENA         CLEAR     21  16  79 SW7       29.77F WCI  13
GLENWOOD       CLOUDY    21  18  86 S13       29.84F WCI   9
BENSON         PTCLDY    21  18  86 SW3       29.89F
ORTONVILLE     PTCLDY    28  21  74 W5        29.86F WCI  23
MADISON        CLOUDY    28  25  86 SW8       29.88F WCI  20
WILLMAR        FAIR      25  19  80 S5        29.88F WCI  19
$$
MNZ033>034-036-042>043-049>051-058-059-100400-
   Central Minnesota

CITY           SKY/WX    TMP DP  RH WIND       PRES   REMARKS
ST CLOUD       CLOUDY    22  15  75 S14       29.86F WCI   9
SAUK CENTRE    FAIR      22  17  78 S13       29.83F WCI  10
PAYNESVILLE    MOCLDY    24  18  77 SW13      29.87F WCI  12
AITKIN         CLOUDY    19  12  73 SW9       29.82F WCI   9
PINE RIVER     CLOUDY    19  12  73 CALM      29.85R
BRAINERD       MOCLDY    21  13  71 S8        29.83F WCI  11
STAPLES        CLOUDY    19  14  79 S6        29.80F WCI  11
LONG PRAIRIE   FAIR      23  18  80 S12       29.82F WCI  12
LITTLE FALLS   CLOUDY    23  10  58 S9        29.85F WCI  13
LITCHFIELD     CLOUDY    25  18  74 SW5       29.90F WCI  19
BUFFALO        CLOUDY    22  16  76 S9        29.91F WCI  12
MAPLE LAKE     CLOUDY    23  18  80 S8        29.89F WCI  14
HUTCHINSON     CLOUDY    23  18  80 S10       29.92F WCI  13
$$
MNZ037-044-045-052-053-100400-
   East Central Minnesota

CITY           SKY/WX    TMP DP  RH WIND       PRES   REMARKS
PRINCETON      CLOUDY    23  16  74 S9        29.87F WCI  13
MORA           CLOUDY    21  14  73 S8        29.90F WCI  12
CAMBRIDGE      CLOUDY    25  14  63 S9        29.89F WCI  15
RUSH CITY      CLOUDY    21  15  76 S10       29.90F WCI  10
MOOSE LAKE     CLOUDY    21  14  73 SW9       29.83F WCI  11
HINCKLEY       CLOUDY    23  18  80 S9        29.89F WCI  13
CLOQUET        CLOUDY    18  10  73 S6        29.83R WCI   9
MCGREGOR       CLOUDY    23  14  68 SW9G17    29.83F WCI  13
$$
MNZ071>073-080-081-089-090-097-098-100400-
   Southwest Minnesota

CITY           SKY/WX    TMP DP  RH WIND       PRES   REMARKS
MONTEVIDEO     PTCLDY    25  19  80 SW7       29.88F WCI  17
GRANITE FALLS  MOCLDY    27  22  83 S8        29.91F WCI  18
CANBY          CLOUDY    31  25  76 SW22G32   29.87F WCI  19
MARSHALL       PTCLDY    27  22  81 SW14      29.89F WCI  16
REDWOOD FALLS  CLOUDY    24  17  74 S9        29.92F WCI  14
OLIVIA         CLOUDY    27  19  74 S9        29.90F WCI  17
PIPESTONE      CLOUDY    19  18  93 SW9       29.93S WCI   9
WINDOM           N/A     25  12  58 SW12      29.95F WCI  14
WORTHINGTON    CLOUDY    24  20  84 SW14      29.94F WCI  12
JACKSON        CLOUDY    23  19  86 MISG      29.97F
TRACY          PTCLDY    27  23  84 SW18G26   29.90F WCI  14
$$
MNZ065>067-074>077-082>085-091>093-100400-
   South Central Minnesota

CITY           SKY/WX    TMP DP  RH WIND       PRES   REMARKS
MANKATO        CLOUDY    21  16  81 S7        29.99F WCI  12
NEW ULM        CLOUDY    23  16  74 SW9       29.95F WCI  13
ST JAMES       PTCLDY    21  18  86 S7        29.98F WCI  13
FAIRMONT       MOCLDY    22  18  85 SW8       30.00F WCI  12
GLENCOE        CLOUDY    24  18  80 S9        29.92F WCI  14
FARIBAULT      MOCLDY    21  16  79 S9        29.97F WCI  11
WASECA         CLOUDY    21  18  86 S8        30.00F WCI  12
ALBERT LEA     CLOUDY    19  14  79 SW5       30.01R WCI  13
$$
MNZ078>079-086>088-094>096-100400-
   Southeast Minnesota

CITY           SKY/WX    TMP DP  RH WIND       PRES   REMARKS
ROCHESTER      CLOUDY    20  14  77 SW13      29.99F WCI   7
RED WING       CLOUDY    21  12  68 SW3       29.99F
STANTON        CLOUDY    23  17  77 SW9       29.96F WCI  13
DODGE CENTER   CLOUDY    19  14  79 SW10      29.97F WCI   8
WINONA         CLOUDY    21  14  73 W3        30.05S
AUSTIN         CLOUDY    19  14  79 SW6       30.00F WCI  11
PRESTON        CLOUDY    18  13  79 SW7       30.01F WCI   9
$$
ABBREVIATIONS USED IN REMARKS
   TC - TEMPERATURES IN CELSIUS
  WCI - WIND CHILL INDEX
   HX - HEAT INDEX
  VSB - VISIBILITY
$$




USA.gov is the U.S. government's official web portal to all federal, state and local government web resources and services.